星链-1341 (STARLINK-1341 )

导读

STARLINK-1341是美国SpaceX公司星链星座V1.0批次中的一颗低轨通信卫星,于北京时间2020年4月22日由猎鹰9号运载火箭成功发射入轨。 作为星链互联网星座的组成部分,它质量约260千克,配备Ka/Ku波段天线与氪霍尔推进器,可自主规避空间碰撞,旨在为全球提供宽带互联网接入服务。截至目前,它仍在近地轨道服役,支撑星链全球组网与运营。

Basic Information
目录编号:
45534
目录名称:
STARLINK-1341
国际标识:
2020-025D
轨道中心:
EARTH
卫星名称:
星链-1341
卫星全名:
星链-1341 (STARLINK-1341 )
卫星状态:
已陨落 最后检测时间 2025-02-24
发射日期:
2020-04-22 UTC
国别 :
美国 (US)
星等 :
--
Orbit Information
数据来源 国际轨道数据
星历时间: 2025-02-24T18:30:32+0800
轨道信息已过期475天
半长轴: 6570.277km
偏心率: 0.0007722
轨道倾角: 53.026°
近地点辐角 209.908°
升交点赤经 312.927°
平近点角 324.915°
近地点: 187.068km
远地点: 197.216km
周期: 88.335分钟
每日圈数: 16.301489
Detailed Information
固有亮度:
5
最大亮度:
2.5
卫星平台:
Starlink V1.0
覆盖范围:
全球
运营商:
太空探索技术公司
运营商所在国:
美国
制造商(研发单位):
太空探索技术公司
制造商所在国:
美国
使用方式:
暂无
Satellite Introduction
星链(Starlink)计划是由太空探索技术公司(SpaceX)提出的一个巨型低轨卫星互联网星座项目,计划在2019年至2024年间在太空搭建由约1.2万颗卫星组成的“星链”网络,其中1584颗将部署在地球上空550千米处的近地轨道,并从2020年开始工作。该卫星仍在工作。